Year,Month,Day,Hour,Minute,Value (Times are PST for windgust in km/hr)
2002,05,04,05,57,13.00
2002,05,04,05,58,25.90
2002,05,04,05,59,13.00
2002,05,04,06,04,4.70
2002,05,04,06,05,9.70
2002,05,04,06,06,7.90
2002,05,04,06,07,9.70
2002,05,04,06,08,13.00
2002,05,04,06,09,16.20
2002,05,04,06,11,11.20
2002,05,04,06,12,11.20
2002,05,04,06,13,22.70
2002,05,04,06,14,13.00
2002,05,04,06,15,13.00
2002,05,04,06,16,13.00
2002,05,04,06,17,19.40
2002,05,04,06,18,17.60
2002,05,04,06,19,13.00
2002,05,04,06,20,17.60
2002,05,04,06,21,11.20
2002,05,04,06,22,13.00
2002,05,04,06,23,13.00
2002,05,04,06,24,11.20
2002,05,04,06,25,7.90
2002,05,04,06,26,20.90
2002,05,04,06,27,16.20
2002,05,04,06,28,17.60
2002,05,04,06,29,16.20
2002,05,04,06,30,13.00
2002,05,04,06,31,17.60
2002,05,04,06,32,11.20
2002,05,04,06,33,17.60
2002,05,04,06,34,16.20
2002,05,04,06,35,17.60
2002,05,04,06,36,11.20
2002,05,04,06,37,9.70
2002,05,04,06,38,17.60
2002,05,04,06,39,13.00
2002,05,04,06,40,13.00
2002,05,04,06,41,16.20
2002,05,04,06,42,11.20
2002,05,04,06,43,7.90
2002,05,04,06,44,11.20
2002,05,04,06,45,11.20
2002,05,04,06,46,7.90
2002,05,04,06,47,7.90
2002,05,04,06,48,4.70
2002,05,04,06,49,9.70
2002,05,04,06,50,7.90
2002,05,04,06,51,9.70
2002,05,04,06,52,11.20
2002,05,04,06,53,11.20
2002,05,04,06,54,9.70
2002,05,04,06,55,3.20
2002,05,04,06,56,7.90
2002,05,04,06,57,7.90
2002,05,04,06,58,7.90
2002,05,04,06,59,4.70
2002,05,04,07,00,4.70
2002,05,04,07,01,9.70
2002,05,04,07,02,9.70
2002,05,04,07,03,9.70
2002,05,04,07,04,4.70
2002,05,04,07,05,7.90
2002,05,04,07,06,9.70
2002,05,04,07,07,7.90
2002,05,04,07,08,11.20
2002,05,04,07,09,11.20
2002,05,04,07,10,7.90
2002,05,04,07,11,11.20
2002,05,04,07,12,7.90
2002,05,04,07,13,7.90
2002,05,04,07,14,11.20
2002,05,04,07,15,7.90
2002,05,04,07,16,4.70
2002,05,04,07,17,9.70
2002,05,04,07,18,4.70
2002,05,04,07,19,7.90
2002,05,04,07,20,7.90
2002,05,04,07,21,9.70
2002,05,04,07,22,9.70
2002,05,04,07,23,9.70
2002,05,04,07,24,9.70
2002,05,04,07,25,9.70
2002,05,04,07,26,11.20
2002,05,04,07,27,11.20
2002,05,04,07,28,11.20
2002,05,04,07,29,22.70
2002,05,04,07,30,11.20
2002,05,04,07,31,13.00
2002,05,04,07,32,19.40
2002,05,04,07,33,13.00
2002,05,04,07,34,16.20
2002,05,04,07,35,17.60
2002,05,04,07,36,9.70
2002,05,04,07,37,13.00
2002,05,04,07,38,22.70
2002,05,04,07,39,13.00
2002,05,04,07,40,9.70
2002,05,04,07,41,13.00
2002,05,04,07,42,19.40
2002,05,04,07,43,16.20
2002,05,04,07,44,16.20
2002,05,04,07,45,19.40
2002,05,04,07,46,9.70
2002,05,04,07,47,16.20
2002,05,04,07,48,16.20
2002,05,04,07,49,19.40
2002,05,04,07,50,7.90
2002,05,04,07,51,13.00
2002,05,04,07,52,19.40
2002,05,04,07,53,13.00
2002,05,04,07,54,11.20
2002,05,04,07,55,13.00
2002,05,04,07,56,13.00
2002,05,04,07,57,20.90
2002,05,04,07,58,13.00
2002,05,04,07,59,13.00
2002,05,04,08,00,9.70
2002,05,04,08,01,11.20
2002,05,04,08,02,11.20
2002,05,04,08,03,11.20
2002,05,04,08,04,9.70
2002,05,04,08,05,16.20
2002,05,04,08,06,16.20
2002,05,04,08,07,11.20
2002,05,04,08,08,16.20
2002,05,04,08,09,16.20
2002,05,04,08,10,13.00
2002,05,04,08,11,7.90
2002,05,04,08,12,17.60
2002,05,04,08,13,13.00
2002,05,04,08,14,19.40
2002,05,04,08,15,9.70
2002,05,04,08,16,16.20
2002,05,04,08,17,13.00
2002,05,04,08,18,11.20
2002,05,04,08,19,20.90
2002,05,04,08,20,16.20
2002,05,04,08,21,20.90
2002,05,04,08,22,28.80
2002,05,04,08,23,16.20
2002,05,04,08,24,9.70
2002,05,04,08,25,4.70
2002,05,04,08,26,9.70
2002,05,04,08,27,13.00
2002,05,04,08,28,9.70
2002,05,04,08,29,19.40
2002,05,04,08,30,22.70
2002,05,04,08,31,27.40
2002,05,04,08,32,25.90
2002,05,04,08,33,16.20
2002,05,04,08,34,11.20
2002,05,04,08,35,11.20
2002,05,04,08,36,13.00
2002,05,04,08,37,16.20
2002,05,04,08,38,16.20
2002,05,04,08,39,17.60
2002,05,04,08,40,19.40
2002,05,04,08,41,7.90
2002,05,04,08,42,25.90
2002,05,04,08,43,30.60
2002,05,04,08,44,33.80
2002,05,04,08,45,28.80
2002,05,04,08,46,16.20
2002,05,04,08,47,17.60
2002,05,04,08,48,13.00
2002,05,04,08,49,13.00
2002,05,04,08,50,22.70
2002,05,04,08,51,27.40
2002,05,04,08,52,9.70
2002,05,04,08,53,17.60
2002,05,04,08,54,17.60
2002,05,04,08,55,13.00
2002,05,04,08,56,28.80
2002,05,04,08,57,22.70
2002,05,04,08,58,20.90
2002,05,04,08,59,22.70
2002,05,04,09,00,11.20
2002,05,04,09,01,17.60
2002,05,04,09,02,19.40
2002,05,04,09,03,16.20
2002,05,04,09,04,17.60
2002,05,04,09,05,20.90
2002,05,04,09,06,19.40
2002,05,04,09,07,16.20
2002,05,04,09,08,20.90
2002,05,04,09,09,17.60
2002,05,04,09,10,7.90
2002,05,04,09,11,13.00
2002,05,04,09,12,22.70
2002,05,04,09,13,19.40
2002,05,04,09,14,25.90
2002,05,04,09,15,28.80
2002,05,04,09,16,25.90
2002,05,04,09,17,28.80
2002,05,04,09,18,19.40
2002,05,04,09,19,9.70
2002,05,04,09,20,11.20
2002,05,04,09,21,11.20
2002,05,04,09,22,22.70
2002,05,04,09,23,11.20
2002,05,04,09,24,17.60
2002,05,04,09,25,19.40
2002,05,04,09,26,13.00
2002,05,04,09,27,19.40
2002,05,04,09,28,16.20
2002,05,04,09,29,13.00
2002,05,04,09,30,9.70
2002,05,04,09,31,13.00
2002,05,04,09,32,13.00
2002,05,04,09,33,16.20
2002,05,04,09,34,16.20
2002,05,04,09,35,4.70
2002,05,04,09,36,9.70
2002,05,04,09,37,9.70
2002,05,04,09,38,17.60
2002,05,04,09,39,11.20
2002,05,04,09,40,17.60
2002,05,04,09,41,11.20
2002,05,04,09,42,22.70
2002,05,04,09,43,20.90
2002,05,04,09,44,19.40
2002,05,04,09,45,16.20
2002,05,04,09,46,16.20
2002,05,04,09,47,16.20
2002,05,04,09,48,19.40
2002,05,04,09,49,25.90
2002,05,04,09,50,16.20
2002,05,04,09,51,17.60
2002,05,04,09,52,13.00
2002,05,04,09,53,16.20
2002,05,04,09,54,16.20
2002,05,04,09,55,19.40
2002,05,04,09,56,17.60
2002,05,04,09,57,17.60
2002,05,04,09,58,19.40
2002,05,04,09,59,19.40
2002,05,04,10,00,16.20
2002,05,04,10,01,16.20
2002,05,04,10,02,16.20
2002,05,04,10,03,19.40
2002,05,04,10,04,19.40
2002,05,04,10,05,13.00
2002,05,04,10,06,16.20
2002,05,04,10,07,20.90
2002,05,04,10,08,9.70
2002,05,04,10,09,11.20
2002,05,04,10,10,19.40
2002,05,04,10,11,16.20
2002,05,04,10,12,19.40
2002,05,04,10,13,20.90
2002,05,04,10,14,17.60
2002,05,04,10,15,13.00
2002,05,04,10,16,11.20
2002,05,04,10,17,13.00
2002,05,04,10,18,20.90
2002,05,04,10,19,25.90
2002,05,04,10,20,19.40
2002,05,04,10,21,17.60
2002,05,04,10,22,9.70
2002,05,04,10,23,17.60
2002,05,04,10,24,11.20
2002,05,04,10,25,20.90
2002,05,04,10,26,20.90
2002,05,04,10,27,17.60
2002,05,04,10,28,19.40
2002,05,04,10,29,22.70
2002,05,04,10,30,20.90
2002,05,04,10,31,13.00
2002,05,04,10,32,17.60
2002,05,04,10,33,25.90
2002,05,04,10,34,16.20
2002,05,04,10,35,17.60
2002,05,04,10,36,11.20
2002,05,04,10,37,13.00
2002,05,04,10,38,11.20
2002,05,04,10,39,17.60
2002,05,04,10,40,16.20
2002,05,04,10,41,16.20
2002,05,04,10,42,11.20
2002,05,04,10,43,19.40
2002,05,04,10,44,16.20
2002,05,04,10,45,9.70
2002,05,04,10,46,19.40
2002,05,04,10,47,16.20
2002,05,04,10,48,7.90
2002,05,04,10,49,13.00
2002,05,04,10,50,13.00
2002,05,04,10,51,20.90
2002,05,04,10,52,16.20
2002,05,04,10,53,16.20
2002,05,04,10,54,11.20
2002,05,04,10,55,17.60
2002,05,04,10,56,19.40
2002,05,04,10,57,16.20
2002,05,04,10,58,16.20
2002,05,04,10,59,16.20
2002,05,04,11,00,16.20
2002,05,04,11,01,20.90
2002,05,04,11,02,25.90
2002,05,04,11,03,13.00
2002,05,04,11,04,11.20
2002,05,04,11,05,19.40
2002,05,04,11,06,16.20
2002,05,04,11,07,17.60
2002,05,04,11,08,11.20
2002,05,04,11,09,13.00
2002,05,04,11,10,20.90
2002,05,04,11,11,17.60
2002,05,04,11,12,16.20
2002,05,04,11,13,19.40
2002,05,04,11,14,19.40
2002,05,04,11,15,20.90
2002,05,04,11,16,13.00
2002,05,04,11,17,16.20
2002,05,04,11,18,13.00
2002,05,04,11,19,16.20
2002,05,04,11,20,20.90
2002,05,04,11,21,22.70
2002,05,04,11,22,13.00
2002,05,04,11,23,22.70
2002,05,04,11,24,16.20
2002,05,04,11,25,22.70
2002,05,04,11,26,16.20
2002,05,04,11,27,7.90
2002,05,04,11,28,13.00
2002,05,04,11,29,16.20
2002,05,04,11,30,4.70
2002,05,04,11,31,16.20
2002,05,04,11,32,22.70
2002,05,04,11,33,22.70
2002,05,04,11,34,13.00
2002,05,04,11,35,20.90
2002,05,04,11,36,25.90
2002,05,04,11,37,25.90
2002,05,04,11,38,22.70
2002,05,04,11,39,25.90
2002,05,04,11,40,30.60
2002,05,04,11,41,19.40
2002,05,04,11,42,17.60
2002,05,04,11,43,17.60
2002,05,04,11,44,17.60
2002,05,04,11,45,19.40
2002,05,04,11,46,20.90
2002,05,04,11,47,16.20
2002,05,04,11,48,16.20
2002,05,04,11,49,3.20
2002,05,04,11,50,20.90
2002,05,04,11,51,17.60
2002,05,04,11,52,16.20
2002,05,04,11,53,30.60
2002,05,04,11,54,27.40
2002,05,04,11,55,22.70
2002,05,04,11,56,17.60
2002,05,04,11,57,19.40
2002,05,04,11,58,17.60
2002,05,04,11,59,13.00
2002,05,04,12,00,16.20
2002,05,04,12,01,11.20
2002,05,04,12,02,11.20
2002,05,04,12,03,9.70
2002,05,04,12,04,16.20
2002,05,04,12,05,17.60
2002,05,04,12,06,19.40
2002,05,04,12,07,27.40
2002,05,04,12,08,27.40
2002,05,04,12,09,28.80
2002,05,04,12,10,19.40
2002,05,04,12,11,16.20
2002,05,04,12,12,20.90
2002,05,04,12,13,27.40
2002,05,04,12,14,27.40
2002,05,04,12,15,20.90
2002,05,04,12,16,17.60
2002,05,04,12,17,16.20
2002,05,04,12,18,13.00
2002,05,04,12,19,17.60
2002,05,04,12,20,19.40
2002,05,04,12,21,19.40
2002,05,04,12,22,16.20
2002,05,04,12,23,19.40
2002,05,04,12,24,22.70
2002,05,04,12,25,27.40
2002,05,04,12,26,22.70
2002,05,04,12,27,22.70
2002,05,04,12,28,22.70
2002,05,04,12,29,20.90
2002,05,04,12,30,16.20
2002,05,04,12,31,20.90
2002,05,04,12,32,19.40
2002,05,04,12,33,13.00
2002,05,04,12,34,17.60
2002,05,04,12,35,11.20
2002,05,04,12,36,16.20
2002,05,04,12,37,25.90
2002,05,04,12,38,19.40
2002,05,04,12,39,20.90
2002,05,04,12,40,16.20
2002,05,04,12,41,16.20
2002,05,04,12,42,17.60
2002,05,04,12,43,16.20
2002,05,04,12,44,16.20
2002,05,04,12,45,20.90
2002,05,04,12,46,19.40
2002,05,04,12,47,13.00
2002,05,04,12,48,17.60
2002,05,04,12,49,17.60
2002,05,04,12,50,17.60
2002,05,04,12,51,16.20
2002,05,04,12,52,17.60
2002,05,04,12,53,13.00
2002,05,04,12,54,16.20
2002,05,04,12,55,13.00
2002,05,04,12,56,16.20
2002,05,04,12,57,11.20
2002,05,04,12,58,11.20
2002,05,04,12,59,11.20
2002,05,04,13,00,13.00
2002,05,04,13,01,9.70
2002,05,04,13,02,16.20
2002,05,04,13,03,17.60
2002,05,04,13,04,13.00
2002,05,04,13,05,13.00
2002,05,04,13,06,16.20
2002,05,04,13,07,17.60
2002,05,04,13,08,16.20
2002,05,04,13,09,13.00
2002,05,04,13,10,17.60
2002,05,04,13,11,16.20
2002,05,04,13,12,17.60
2002,05,04,13,13,17.60
2002,05,04,13,14,13.00
2002,05,04,13,15,16.20
2002,05,04,13,16,7.90
2002,05,04,13,17,9.70
2002,05,04,13,18,11.20
2002,05,04,13,19,16.20
2002,05,04,13,20,19.40
2002,05,04,13,21,16.20
2002,05,04,13,22,19.40
2002,05,04,13,23,16.20
2002,05,04,13,24,13.00
2002,05,04,13,25,20.90
2002,05,04,13,26,19.40
2002,05,04,13,27,19.40
2002,05,04,13,28,22.70
2002,05,04,13,29,17.60
2002,05,04,13,30,19.40
2002,05,04,13,31,20.90
2002,05,04,13,32,19.40
2002,05,04,13,33,20.90
2002,05,04,13,34,17.60
2002,05,04,13,35,19.40
2002,05,04,13,36,22.70
2002,05,04,13,37,22.70
2002,05,04,13,38,25.90
2002,05,04,13,39,25.90
2002,05,04,13,40,17.60
2002,05,04,13,41,22.70
2002,05,04,13,42,19.40
2002,05,04,13,43,22.70
2002,05,04,13,44,22.70
2002,05,04,13,45,22.70
2002,05,04,13,46,22.70
2002,05,04,13,47,22.70
2002,05,04,13,48,19.40
2002,05,04,13,49,19.40
2002,05,04,13,50,22.70
2002,05,04,13,51,25.90
2002,05,04,13,52,25.90
2002,05,04,13,53,27.40
2002,05,04,13,54,22.70
2002,05,04,13,55,25.90
2002,05,04,13,56,19.40
2002,05,04,13,57,20.90
2002,05,04,13,58,17.60
2002,05,04,13,59,16.20
2002,05,04,14,00,17.60
2002,05,04,14,01,17.60
2002,05,04,14,02,19.40
2002,05,04,14,03,22.70
2002,05,04,14,04,19.40
2002,05,04,14,05,20.90
2002,05,04,14,06,19.40
2002,05,04,14,07,11.20
2002,05,04,14,08,17.60
2002,05,04,14,09,11.20
2002,05,04,14,10,13.00
2002,05,04,14,11,9.70
2002,05,04,14,12,7.90
2002,05,04,14,13,13.00
2002,05,04,14,14,20.90
2002,05,04,14,15,19.40
2002,05,04,14,16,16.20
2002,05,04,14,17,13.00
2002,05,04,14,18,16.20
2002,05,04,14,19,25.90
2002,05,04,14,20,13.00
2002,05,04,14,21,19.40
2002,05,04,14,22,22.70
2002,05,04,14,23,17.60
2002,05,04,14,24,17.60
2002,05,04,14,25,16.20
2002,05,04,14,26,19.40
2002,05,04,14,27,11.20
2002,05,04,14,28,16.20
2002,05,04,14,29,19.40
2002,05,04,14,30,22.70
2002,05,04,14,31,22.70
2002,05,04,14,32,16.20
2002,05,04,14,33,19.40
2002,05,04,14,34,25.90
2002,05,04,14,35,17.60
2002,05,04,14,36,27.40
2002,05,04,14,37,19.40
2002,05,04,14,38,19.40
2002,05,04,14,39,20.90
2002,05,04,14,40,20.90
2002,05,04,14,41,22.70
2002,05,04,14,42,20.90
2002,05,04,14,43,17.60
2002,05,04,14,44,20.90
2002,05,04,14,45,19.40
2002,05,04,14,46,20.90
2002,05,04,14,47,22.70
2002,05,04,14,48,22.70
2002,05,04,14,49,19.40
2002,05,04,14,50,17.60
2002,05,04,14,51,16.20
2002,05,04,14,52,25.90
2002,05,04,14,53,19.40
2002,05,04,14,54,17.60
2002,05,04,14,55,16.20
2002,05,04,14,56,17.60
2002,05,04,14,57,17.60
2002,05,04,14,58,19.40
2002,05,04,14,59,17.60
2002,05,04,15,00,17.60
2002,05,04,15,01,16.20
2002,05,04,15,02,19.40
2002,05,04,15,03,17.60
2002,05,04,15,04,17.60
2002,05,04,15,05,20.90
2002,05,04,15,06,20.90
2002,05,04,15,07,11.20
2002,05,04,15,08,16.20
2002,05,04,15,09,17.60
2002,05,04,15,10,17.60
2002,05,04,15,11,19.40
2002,05,04,15,12,20.90
2002,05,04,15,13,19.40
2002,05,04,15,14,20.90
2002,05,04,15,15,19.40
2002,05,04,15,16,20.90
2002,05,04,15,17,9.70
2002,05,04,15,18,19.40
2002,05,04,15,19,20.90
2002,05,04,15,20,19.40
2002,05,04,15,21,22.70
2002,05,04,15,22,27.40
2002,05,04,15,23,22.70
2002,05,04,15,24,25.90
2002,05,04,15,25,19.40
2002,05,04,15,26,17.60
2002,05,04,15,27,20.90
2002,05,04,15,28,22.70
2002,05,04,15,29,19.40
2002,05,04,15,30,17.60
2002,05,04,15,31,17.60
2002,05,04,15,32,11.20
2002,05,04,15,33,16.20
2002,05,04,15,34,13.00
2002,05,04,15,35,11.20
2002,05,04,15,36,13.00
2002,05,04,15,37,19.40
2002,05,04,15,38,19.40
2002,05,04,15,39,13.00
2002,05,04,15,40,11.20
2002,05,04,15,41,20.90
2002,05,04,15,42,16.20
2002,05,04,15,43,20.90
2002,05,04,15,44,11.20
2002,05,04,15,45,17.60
2002,05,04,15,46,16.20
2002,05,04,15,47,20.90
2002,05,04,15,48,19.40
2002,05,04,15,49,19.40
2002,05,04,15,50,16.20
2002,05,04,15,51,17.60
2002,05,04,15,52,16.20
2002,05,04,15,53,16.20
2002,05,04,15,54,13.00
2002,05,04,15,55,19.40
2002,05,04,15,56,17.60
2002,05,04,15,57,16.20
2002,05,04,15,58,13.00
2002,05,04,15,59,22.70
2002,05,04,16,00,11.20
2002,05,04,16,01,11.20
2002,05,04,16,02,11.20
2002,05,04,16,03,11.20
2002,05,04,16,04,13.00
2002,05,04,16,05,17.60
2002,05,04,16,06,19.40
2002,05,04,16,07,17.60
2002,05,04,16,08,16.20
2002,05,04,16,09,17.60
2002,05,04,16,10,13.00
2002,05,04,16,11,11.20
2002,05,04,16,12,20.90
2002,05,04,16,13,13.00
2002,05,04,16,14,13.00
2002,05,04,16,15,20.90
2002,05,04,16,16,19.40
2002,05,04,16,17,20.90
2002,05,04,16,18,16.20
2002,05,04,16,19,16.20
2002,05,04,16,20,11.20
2002,05,04,16,21,20.90
2002,05,04,16,22,9.70
2002,05,04,16,23,11.20
2002,05,04,16,24,20.90
2002,05,04,16,25,13.00
2002,05,04,16,26,13.00
2002,05,04,16,27,13.00
2002,05,04,16,28,7.90
2002,05,04,16,29,22.70
2002,05,04,16,30,25.90
2002,05,04,16,31,22.70
2002,05,04,16,32,20.90
2002,05,04,16,33,13.00
2002,05,04,16,34,11.20
2002,05,04,16,35,9.70
2002,05,04,16,36,19.40
2002,05,04,16,37,17.60
2002,05,04,16,38,16.20
2002,05,04,16,39,17.60
2002,05,04,16,40,13.00
2002,05,04,16,41,13.00
2002,05,04,16,42,11.20
2002,05,04,16,43,13.00
2002,05,04,16,44,25.90
2002,05,04,16,45,20.90
2002,05,04,16,46,19.40
2002,05,04,16,47,25.90
2002,05,04,16,48,19.40
2002,05,04,16,49,22.70
2002,05,04,16,50,13.00
2002,05,04,16,51,22.70
2002,05,04,16,52,25.90
2002,05,04,16,53,17.60
2002,05,04,16,54,20.90
2002,05,04,16,55,16.20
2002,05,04,16,56,17.60
2002,05,04,16,57,19.40
2002,05,04,16,58,20.90
2002,05,04,16,59,22.70
2002,05,04,17,00,22.70
2002,05,04,17,01,20.90
2002,05,04,17,02,22.70
2002,05,04,17,03,25.90
2002,05,04,17,04,22.70
2002,05,04,17,05,16.20
2002,05,04,17,06,22.70
2002,05,04,17,07,17.60
2002,05,04,17,08,16.20
2002,05,04,17,09,16.20
2002,05,04,17,10,16.20
2002,05,04,17,11,20.90
2002,05,04,17,12,17.60
2002,05,04,17,13,13.00
2002,05,04,17,14,13.00
2002,05,04,17,15,17.60
2002,05,04,17,16,17.60
2002,05,04,17,17,13.00
2002,05,04,17,18,11.20
2002,05,04,17,19,16.20
2002,05,04,17,20,13.00
2002,05,04,17,21,20.90
2002,05,04,17,22,16.20
2002,05,04,17,23,20.90
2002,05,04,17,24,19.40
2002,05,04,17,25,19.40
2002,05,04,17,26,19.40
2002,05,04,17,27,16.20
2002,05,04,17,28,17.60
2002,05,04,17,29,19.40
2002,05,04,17,30,17.60
2002,05,04,17,31,25.90
2002,05,04,17,32,20.90
2002,05,04,17,33,22.70
2002,05,04,17,34,17.60
2002,05,04,17,35,20.90
2002,05,04,17,36,22.70
2002,05,04,17,37,17.60
2002,05,04,17,38,16.20
2002,05,04,17,39,16.20
2002,05,04,17,40,13.00
2002,05,04,17,41,17.60
2002,05,04,17,42,17.60
2002,05,04,17,43,16.20
2002,05,04,17,44,13.00
2002,05,04,17,45,13.00
2002,05,04,17,46,11.20
2002,05,04,17,47,13.00
2002,05,04,17,48,20.90
2002,05,04,17,49,13.00
2002,05,04,17,50,9.70
2002,05,04,17,51,16.20
2002,05,04,17,52,16.20
2002,05,04,17,53,19.40
2002,05,04,17,54,20.90
2002,05,04,17,55,16.20
2002,05,04,17,56,17.60
2002,05,04,17,57,13.00
2002,05,04,17,58,17.60
2002,05,04,17,59,17.60
2002,05,04,18,00,17.60
2002,05,04,18,01,16.20
2002,05,04,18,02,19.40
2002,05,04,18,03,16.20
2002,05,04,18,04,19.40
2002,05,04,18,05,20.90
2002,05,04,18,06,17.60
2002,05,04,18,07,16.20
2002,05,04,18,08,11.20
2002,05,04,18,09,16.20
2002,05,04,18,10,9.70
2002,05,04,18,11,13.00
2002,05,04,18,12,16.20
2002,05,04,18,13,16.20
2002,05,04,18,14,19.40
2002,05,04,18,15,13.00
2002,05,04,18,16,27.40
2002,05,04,18,17,17.60
2002,05,04,18,18,20.90
2002,05,04,18,19,16.20
2002,05,04,18,20,19.40
2002,05,04,18,21,17.60
2002,05,04,18,22,16.20
2002,05,04,18,23,9.70
2002,05,04,18,24,22.70
2002,05,04,18,25,19.40
2002,05,04,18,26,16.20
2002,05,04,18,27,19.40
2002,05,04,18,28,20.90
2002,05,04,18,29,20.90
2002,05,04,18,30,17.60
2002,05,04,18,31,19.40
2002,05,04,18,32,17.60
2002,05,04,18,33,22.70
2002,05,04,18,34,11.20
2002,05,04,18,35,16.20
2002,05,04,18,36,13.00
2002,05,04,18,37,11.20
2002,05,04,18,38,9.70
2002,05,04,18,39,16.20
2002,05,04,18,40,16.20
2002,05,04,18,41,19.40
2002,05,04,18,42,9.70
2002,05,04,18,43,19.40
2002,05,04,18,44,16.20
2002,05,04,18,45,16.20
2002,05,04,18,46,11.20
2002,05,04,18,47,13.00
2002,05,04,18,48,13.00
2002,05,04,18,49,19.40
2002,05,04,18,50,16.20
2002,05,04,18,51,16.20
2002,05,04,18,52,11.20
2002,05,04,18,53,13.00
2002,05,04,18,54,9.70
2002,05,04,18,55,11.20
2002,05,04,18,56,13.00
2002,05,04,18,57,16.20
2002,05,04,18,58,16.20
2002,05,04,18,59,19.40
2002,05,04,19,00,19.40
2002,05,04,19,01,16.20
2002,05,04,19,02,20.90
2002,05,04,19,03,20.90
2002,05,04,19,04,20.90
2002,05,04,19,05,19.40
2002,05,04,19,06,17.60
2002,05,04,19,07,13.00
2002,05,04,19,08,16.20
2002,05,04,19,09,16.20
2002,05,04,19,10,13.00
2002,05,04,19,11,19.40
2002,05,04,19,12,16.20
2002,05,04,19,13,16.20
2002,05,04,19,14,16.20
2002,05,04,19,15,11.20
2002,05,04,19,16,13.00
2002,05,04,19,17,9.70
2002,05,04,19,18,11.20
2002,05,04,19,19,16.20
2002,05,04,19,20,11.20
2002,05,04,19,21,4.70
2002,05,04,19,22,9.70
2002,05,04,19,23,11.20
2002,05,04,19,24,11.20
2002,05,04,19,25,7.90
2002,05,04,19,26,7.90
2002,05,04,19,27,4.70
2002,05,04,19,28,7.90
2002,05,04,19,29,7.90
2002,05,04,19,30,9.70
2002,05,04,19,31,13.00
2002,05,04,19,32,16.20
2002,05,04,19,33,11.20
2002,05,04,19,34,9.70
2002,05,04,19,35,9.70
2002,05,04,19,36,11.20
2002,05,04,19,37,3.20
2002,05,04,19,38,9.70
2002,05,04,19,39,9.70
2002,05,04,19,40,9.70
2002,05,04,19,41,13.00
2002,05,04,19,42,16.20
2002,05,04,19,43,13.00
2002,05,04,19,44,4.70
2002,05,04,19,45,4.70
2002,05,04,19,46,4.70
2002,05,04,19,47,7.90
2002,05,04,19,48,9.70
2002,05,04,19,49,9.70
2002,05,04,19,50,19.40
2002,05,04,19,51,19.40
2002,05,04,19,52,9.70
2002,05,04,19,53,4.70
2002,05,04,19,54,7.90
2002,05,04,19,55,9.70
2002,05,04,19,56,9.70
2002,05,04,19,57,7.90
2002,05,04,19,58,4.70
2002,05,04,19,59,7.90
2002,05,04,20,00,7.90
2002,05,04,20,01,4.70
2002,05,04,20,02,4.70
2002,05,04,20,03,7.90
2002,05,04,20,04,4.70
2002,05,04,20,05,3.20
2002,05,04,20,06,4.70
2002,05,04,20,07,1.40
2002,05,04,20,08,4.70
2002,05,04,20,09,4.70
2002,05,04,20,10,7.90
2002,05,04,20,11,11.20
2002,05,04,20,12,11.20
2002,05,04,20,13,9.70
2002,05,04,20,14,4.70
2002,05,04,20,15,7.90
2002,05,04,20,16,7.90
2002,05,04,20,17,3.20
2002,05,04,20,18,11.20
2002,05,04,20,19,9.70
2002,05,04,20,20,16.20
2002,05,04,20,21,11.20
2002,05,04,20,22,3.20
2002,05,04,20,23,4.70
2002,05,04,20,24,9.70
2002,05,04,20,25,7.90
2002,05,04,20,26,7.90
2002,05,04,20,27,4.70
2002,05,04,20,28,3.20
2002,05,04,20,29,4.70
2002,05,04,20,30,3.20
2002,05,04,20,31,9.70
2002,05,04,20,32,9.70
2002,05,04,20,33,4.70
2002,05,04,20,34,7.90
2002,05,04,20,35,1.40
2002,05,04,20,36,4.70
2002,05,04,20,37,1.40
2002,05,04,20,38,1.40
2002,05,04,20,39,7.90
2002,05,04,20,40,9.70
2002,05,04,20,41,7.90
2002,05,04,20,42,7.90
2002,05,04,20,43,3.20
2002,05,04,20,44,7.90
2002,05,04,20,45,9.70
2002,05,04,20,46,4.70
2002,05,04,20,47,3.20
2002,05,04,20,48,4.70
2002,05,04,20,49,3.20
2002,05,04,20,50,4.70
2002,05,04,20,51,9.70
2002,05,04,20,52,9.70
2002,05,04,20,53,9.70
2002,05,04,20,54,9.70
2002,05,04,20,55,9.70
2002,05,04,20,56,9.70
2002,05,04,20,57,4.70
2002,05,04,20,58,11.20
2002,05,04,20,59,7.90
2002,05,04,21,00,11.20
2002,05,04,21,01,16.20
2002,05,04,21,02,11.20
2002,05,04,21,03,4.70
2002,05,04,21,04,9.70
2002,05,04,21,05,9.70
2002,05,04,21,06,9.70
2002,05,04,21,07,9.70
2002,05,04,21,08,11.20
2002,05,04,21,09,9.70
2002,05,04,21,10,7.90
2002,05,04,21,11,11.20
2002,05,04,21,12,7.90
2002,05,04,21,13,11.20
2002,05,04,21,14,11.20
2002,05,04,21,15,16.20
2002,05,04,21,16,9.70
2002,05,04,21,17,11.20
2002,05,04,21,18,19.40
2002,05,04,21,19,9.70
2002,05,04,21,20,13.00
2002,05,04,21,21,16.20
2002,05,04,21,22,16.20
2002,05,04,21,23,16.20
2002,05,04,21,24,20.90
2002,05,04,21,25,17.60
2002,05,04,21,26,9.70
2002,05,04,21,27,4.70
2002,05,04,21,28,11.20
2002,05,04,21,29,13.00
2002,05,04,21,30,16.20
2002,05,04,21,31,16.20
2002,05,04,21,32,16.20
2002,05,04,21,33,16.20
2002,05,04,21,34,16.20
2002,05,04,21,35,13.00
2002,05,04,21,36,11.20
2002,05,04,21,37,11.20
2002,05,04,21,38,9.70
2002,05,04,21,39,7.90
2002,05,04,21,40,7.90
2002,05,04,21,41,16.20
2002,05,04,21,42,11.20
2002,05,04,21,43,16.20
2002,05,04,21,44,9.70
2002,05,04,21,45,9.70
2002,05,04,21,46,7.90
2002,05,04,21,47,9.70
2002,05,04,21,48,13.00
2002,05,04,21,49,7.90
2002,05,04,21,50,4.70
2002,05,04,21,51,4.70
2002,05,04,21,52,9.70
2002,05,04,21,53,7.90
2002,05,04,21,54,11.20
2002,05,04,21,55,19.40
2002,05,04,21,56,13.00
2002,05,04,21,57,16.20
2002,05,04,21,58,11.20
2002,05,04,21,59,9.70
2002,05,04,22,00,11.20
2002,05,04,22,01,9.70
2002,05,04,22,02,3.20
2002,05,04,22,03,4.70
2002,05,04,22,04,3.20
2002,05,04,22,05,13.00
2002,05,04,22,06,13.00
2002,05,04,22,07,16.20
2002,05,04,22,08,13.00
2002,05,04,22,09,7.90
2002,05,04,22,10,11.20
2002,05,04,22,11,11.20
2002,05,04,22,12,13.00
2002,05,04,22,13,13.00
2002,05,04,22,14,7.90
2002,05,04,22,15,17.60
2002,05,04,22,16,13.00
2002,05,04,22,17,7.90
2002,05,04,22,18,3.20
2002,05,04,22,19,13.00
2002,05,04,22,20,11.20
2002,05,04,22,21,16.20
2002,05,04,22,22,17.60
2002,05,04,22,23,9.70
2002,05,04,22,24,16.20
2002,05,04,22,25,4.70
2002,05,04,22,26,19.40
2002,05,04,22,27,9.70
2002,05,04,22,28,7.90
2002,05,04,22,29,16.20
2002,05,04,22,30,13.00
2002,05,04,22,31,11.20
2002,05,04,22,32,16.20
2002,05,04,22,33,22.70
2002,05,04,22,34,16.20
2002,05,04,22,35,13.00
2002,05,04,22,36,11.20
2002,05,04,22,37,22.70
2002,05,04,22,38,16.20
2002,05,04,22,39,16.20
2002,05,04,22,40,19.40
2002,05,04,22,41,16.20
2002,05,04,22,42,4.70
2002,05,04,22,43,17.60
2002,05,04,22,44,13.00
2002,05,04,22,45,20.90
2002,05,04,22,46,16.20
2002,05,04,22,47,16.20
2002,05,04,22,48,13.00
2002,05,04,22,49,13.00
2002,05,04,22,50,9.70
2002,05,04,22,51,17.60
2002,05,04,22,52,7.90
2002,05,04,22,53,4.70
2002,05,04,22,54,7.90
2002,05,04,22,55,11.20
2002,05,04,22,56,7.90
2002,05,04,22,57,4.70
2002,05,04,22,58,11.20
2002,05,04,22,59,7.90
2002,05,04,23,00,7.90
2002,05,04,23,01,7.90
2002,05,04,23,02,9.70
2002,05,04,23,03,16.20
2002,05,04,23,04,11.20
2002,05,04,23,05,4.70
2002,05,04,23,06,17.60
2002,05,04,23,07,19.40
2002,05,04,23,08,13.00
2002,05,04,23,09,7.90
2002,05,04,23,10,4.70
2002,05,04,23,11,4.70
2002,05,04,23,12,7.90
2002,05,04,23,13,7.90
2002,05,04,23,14,9.70
2002,05,04,23,15,7.90
2002,05,04,23,16,11.20
2002,05,04,23,17,9.70
2002,05,04,23,18,4.70
2002,05,04,23,19,4.70
2002,05,04,23,20,11.20
2002,05,04,23,21,9.70
2002,05,04,23,22,13.00
2002,05,04,23,23,9.70
2002,05,04,23,24,9.70
2002,05,04,23,25,7.90
2002,05,04,23,26,4.70
2002,05,04,23,27,16.20
2002,05,04,23,28,11.20
2002,05,04,23,29,13.00
2002,05,04,23,30,19.40
2002,05,04,23,31,11.20